Kochkorka

Kyrgyzstan     42˚12′57″N   75˚45′19″E
temp.,
°C
wind,
m/s
gust,
m/s
humid.,
%
clouds,
%
prec.,
mm/h
press.,
hPa
HPBL,
m
29 november, sun
sun2900:00−7˚wsw116796 0.1 104256
03:00−8˚wsw12625 0.0 104364
06:00−9˚ssw11626 0.0 104440
09:00−9˚sse01580 0.0 104447
12:00−6˚w33440 0.0 1040674
15:00−5˚wnw23390 0.0 1039788
18:00−7˚n11550 0.0 104237
21:00−8˚sw12540 0.0 104224
30 november, mon
mon3000:00−9˚sw22530 0.0 104226
03:00−9˚wsw22550 0.0 104034
06:00−10˚sw23540 0.0 104132
09:00−9˚sw23490 0.0 104171
12:00−6˚wsw33380 0.0 1038469
15:00−4˚wsw23350 0.0 1035682
18:00−6˚sw22440 0.0 103729
21:00−8˚sw234126 0.0 103744
1 december, tue
tue100:00−8˚sw223963 0.0 103538
03:00−9˚sw2238100 0.0 103425
06:00−9˚wsw2336100 0.0 103327
09:00−8˚wsw2233100 0.0 103241
12:00−4˚w232693 0.0 1030257
15:00−3˚w2326100 0.0 1030257
18:00−5˚wsw233879 0.0 103233
21:00−5˚wsw234982 0.0 103439
2 december, wed
wed200:00−6˚wsw235472 0.0 103435
03:00−6˚wsw335788 0.0 103348
06:00−6˚wsw236592 0.0 103338
09:00−6˚sw236320 0.0 103354
12:00−2˚wsw345217 0.0 1030372
15:00w235031 0.0 1028478
18:00−3˚wsw226362 0.0 102926
21:00−4˚wsw2361100 0.0 103036
3 december, thu
thu300:00−5˚sw2361100 0.0 102934
03:00−5˚sw2363100 0.0 102830
06:00−5˚sw236693 0.0 102930
09:00−5˚sw236543 0.0 102935
12:00−2˚wsw345461 0.0 1026366
15:00w2353100 0.0 1024346
18:00−3˚wsw1266100 0.0 102522
21:00−3˚w1264100 0.0 102523